Home > Time Zones > World Clock > Weather > Japan > Kyoto > Past weeks

Flag Weather past 2 weeks in Kyoto, Japan

Now
64 °F

Mild.


Feels Like: 64 °F
Forecast: 57 / 73 °F
Wind: 3 mph from Northeast

Location: Osaka

Current Time: Oct 31, 2014 at 1:08:58 AM

Latest Report: Oct 31, 2014 at 12:00 AM


Visibility: N/A

Pressure: 30.26 "Hg

Humidity: 78%

Dew point: 57 °F

Location of KyotoLocation

Historic Weather in Kyoto — Graph

°F

Kyoto temperature yesterday

Maximum temperature yesterday: 73 °F (at 3:00 PM)
Minimum temperature yesterday: 54 °F (at 6:00 AM)
Average temperature yesterday: 63 °F

Past Weeks' High & Low Weather Summary

 TemperatureHumidityPressure
High78 °F (Oct 26, 2:00 PM)97% (Oct 27, 5:00 AM)30.37 "Hg (Oct 27, 5:00 AM)
Low49 °F (Oct 29, 6:00 AM)25% (Oct 19, 4:00 PM)29.83 "Hg (Oct 22, 3:00 AM)
Average64 °F64%30.14 "Hg
* Reported Oct 15 11:00 PM — Oct 30 11:00 PM, Kyoto, Weather by CustomWeather, © 2014

Note: Actual official high and low records may vary slightly from our data, if they occured in-between our weather recording intervals... More about our weather records

Advertising

Kyoto weather history for previous 24 hours

 ConditionsComfort  
Time TempWeatherWind HumidityBarometerVisibility
11:00 PM
Oct 30
64 °FMild.2 mph77%30.26 "HgN/A
10:00 PM64 °FMild.3 mph76%30.26 "HgN/A
9:00 PM63 °FOvercast.2 mph78%30.26 "Hg12 mi
8:00 PM65 °FMild.3 mph74%30.25 "HgN/A
7:00 PM66 °FMild.2 mph70%30.25 "HgN/A
6:00 PM69 °FOvercast.6 mph47%30.24 "Hg16 mi
5:00 PM71 °FMild.3 mph36%30.23 "HgN/A
4:00 PM72 °FMild.2 mph32%30.23 "HgN/A
3:00 PM73 °FPassing clouds.2 mph30%30.23 "Hg16 mi
2:00 PM72 °FMild.2 mph33%30.24 "HgN/A
1:00 PM72 °FMild.2 mph37%30.26 "HgN/A
11:00 AM67 °FMild.2 mph47%30.30 "HgN/A
10:00 AM63 °FMild.3 mph51%30.33 "HgN/A
9:00 AM59 °FPassing clouds.3 mph61%30.34 "Hg12 mi
8:00 AM55 °FCool.5 mph71%30.34 "HgN/A
7:00 AM54 °FCool.3 mph73%30.32 "HgN/A
6:00 AM54 °FOvercast.3 mph72%30.31 "Hg19 mi
5:00 AM54 °FCool.5 mph71%30.30 "HgN/A
4:00 AM55 °FCool.5 mph67%30.30 "HgN/A
3:00 AM55 °FOvercast.5 mph66%30.31 "Hg16 mi
2:00 AM56 °FCool.5 mph65%30.32 "HgN/A
1:00 AM56 °FCool.3 mph66%30.32 "HgN/A
Weather by CustomWeather, © 2014

See weather overviewHow to use our weather pages